MPEC 2002-K32 : COMET C/2002 J4 (NEAT)

The following Minor Planet Electronic Circular may be linked-to from your own Web pages, but must not otherwise be redistributed electronically.


Read MPEC 2002-K31 Read MPEC 2002-K33


M.P.E.C. 2002-K32                                Issued 2002 May 20, 21:37 UT

     The Minor Planet Electronic Circulars contain information on unusual
         minor planets and routine data on comets.  They are published
   on behalf of Commission 20 of the International Astronomical Union by the
          Minor Planet Center, Smithsonian Astrophysical Observatory,
                          Cambridge, MA 02138, U.S.A.

             Prepared using the Tamkin Foundation Computer Network

                              MPC@CFA.HARVARD.EDU
          URL http://cfa-www.harvard.edu/iau/mpc.html  ISSN 1523-6714

                            COMET C/2002 J4 (NEAT)

Observations:
    CK02J040  C2002 05 13.91162 15 49 21.12 +00 25 51.9          17.1 T      952
    CK02J040  C2002 05 13.91604 15 49 21.23 +00 25 51.3          17.1 T      952
    CK02J040  C2002 05 13.92821 15 49 20.75 +00 25 51.1          16.8 T      176
    CK02J040  C2002 05 13.93372 15 49 20.56 +00 25 50.8          16.7 T      176
    CK02J040  C2002 05 13.93932 15 49 20.38 +00 25 50.5          17.0 T      176
    CK02J040  C2002 05 13.94248 15 49 20.20 +00 25 50.6                      952
    CK02J040  C2002 05 13.96222 15 49 19.57 +00 25 48.3                      952
    CK02J040  C2002 05 13.96589 15 49 19.37 +00 25 47.1          17.8 T      595
    CK02J040  C2002 05 13.97475 15 49 19.14 +00 25 47.0                      952
    CK02J040  C2002 05 13.97709 15 49 18.92 +00 25 45.0                      595
    CK02J040  C2002 05 14.43516 15 49 02.95 +00 24 58.4          17.8 T      644
    CK02J040  C2002 05 14.45936 15 49 02.11 +00 24 55.9          18.0 T      644
    CK02J040  C2002 05 14.48038 15 49 01.37 +00 24 53.4          18.1 T      644
    CK02J040  C2002 05 14.95797 15 48 44.71 +00 23 59.8          17.2 T      170
    CK02J040  C2002 05 14.96855 15 48 44.31 +00 24 00.2          17.2 T      170
    CK02J040  C2002 05 15.61793 15 48 21.52 +00 22 53.2                      322
    CK02J040  C2002 05 15.65448 15 48 20.36 +00 22 45.9                      322
    CK02J040  C2002 05 15.68962 15 48 18.85 +00 22 45.0                      322
    CK02J040  C2002 05 15.92824 15 48 10.55 +00 22 15.3          17.7 T      215
    CK02J040  C2002 05 15.92884 15 48 10.52 +00 22 14.4          17.5 T      215
    CK02J040  C2002 05 15.92934 15 48 10.49 +00 22 15.0          17.4 T      215
    CK02J040  C2002 05 18.88730 15 46 25.62 +00 16 20.9          17.3 T      170
    CK02J040  C2002 05 18.89389 15 46 25.30 +00 16 21.5          17.3 T      170
    CK02J040  C2002 05 19.61582 15 45 59.50 +00 14 56.5                      322
    CK02J040  C2002 05 19.64157 15 45 58.53 +00 14 50.1                      322
    CK02J040  C2002 05 19.67896 15 45 57.22 +00 14 41.3                      322
    CK02J040  C2002 05 19.88072 15 45 50.17 +00 14 16.2                      213
    CK02J040  C2002 05 19.88282 15 45 50.11 +00 14 15.1                      213
    CK02J040  C2002 05 19.88791 15 45 49.82 +00 14 14.0                      213

Observer details:
170 Observatorio de Begues.  Observer J. Manteca.  0.26-m Schmidt-Cassegrain
    + CCD.
176 Observatori Astronomic de Consell.  Observers A. Lopez, R. Pacheco.  0.41-m
    f/4 reflector + CCD.
213 Observatorio Montcabre.  Observer R. Naves N.  Measurer M. Campas.  0.25-m
    f/3.3 Schmidt-Cassegrain + CCD.
215 Buchloe.  Observer W. Hasubick.  0.44-m f/4.6 reflector + CCD.
322 Perth Observatory, Bickley-MCT.  Observer J. Biggs.  0.25-m
    f/4.5 reflector + CCD.
595 Farra d'Isonzo.  Observers G. Lombardi, E. Pettarin.  0.40-m f/4.5
    reflector + CCD.
644 Palomar Mountain/NEAT.  Observers E. F. Helin, S. Pravdo, K. Lawrence,
    M. Hicks, R. Thicksten.  1.2-m Schmidt + CCD.
952 Marxuquera.  Observer J. J. Gomez.  0.25-m f/3.3 Schmidt-Cassegrain + CCD.

Orbital elements:
    C/2002 J4 (NEAT)
T 2003 Oct. 1.4354 TT                                   MPC
q   3.627139             (2000.0)            P               Q
                   Peri.  230.6176      +0.2977086      +0.6659283
                   Node    70.9847      -0.4874198      +0.7221265
e   1.0            Incl.   46.3459      -0.8208480      -0.1872773
From 55 observations 2002 May 4-19.

Brian G. Marsden             (C) Copyright 2002 MPC           M.P.E.C. 2002-K32

Read MPEC 2002-K31 Read MPEC 2002-K33


Our Web policy. Index to the CBAT/MPC/ICQ pages.

MPC